GFSNIL_850_temp_021.txt.gz
Temp
6 5 5 5 4 4 4 5 4 4 4 3 2 1 -0 -1 -1 -1 -1 -1 -1 -1
5 4 4 3 4 4 4 3 3 2 1 0 -1 -1 -1 -1 -1 -1 -2 -2 -3 -3
3 3 3 3 3 2 2 1 -0 -1 -1 -2 -2 -2 -2 -2 -2 -2 -3 -3 -4 -4
3 3 2 2 2 1 1 -1 -1 -2 -2 -2 -2 -3 -4 -4 -4 -3 -3 -3 -3 -3
3 2 2 1 -0 -1 -2 -2 -3 -3 -2 -3 -3 -4 -3 -3 -3 -3 -3 -3 -3 -4
2 1 0 -1 -1 -1 -2 -3 -3 -3 -3 -3 -3 -3 -3 -3 -3 -4 -4 -4 -4 -5
0 -1 -2 -2 -2 -3 -3 -3 -3 -3 -3 -3 -3 -4 -4 -4 -4 -4 -4 -4 -5 -6
-1 -2 -2 -2 -3 -3 -3 -3 -3 -4 -4 -4 -4 -4 -4 -4 -5 -5 -5 -5 -6 -7
-1 -2 -2 -3 -2 -3 -3 -3 -4 -4 -4 -4 -5 -5 -5 -6 -6 -6 -7 -8 -8 -8
-2 -2 -3 -3 -3 -3 -3 -4 -4 -5 -5 -5 -5 -6 -7 -7 -7 -8 -9 -9 -9 -9
-3 -3 -3 -3 -3 -4 -4 -5 -5 -5 -6 -6 -6 -7 -7 -8 -8 -10 -10 -9 -10 -10
-4 -4 -4 -4 -4 -5 -5 -6 -6 -6 -7 -8 -8 -8 -9 -9 -10 -11 -10 -10 -10 -10
-4 -4 -4 -5 -5 -6 -6 -7 -7 -7 -8 -9 -9 -9 -10 -10 -11 -11 -11 -10 -10 -10
-4 -5 -5 -5 -6 -7 -7 -8 -8 -9 -9 -10 -10 -10 -10 -10 -11 -11 -11 -10 -10 -10

GFSNIL_850_temp_024.txt.gz
Temp
7 6 5 4 3 3 3 2 1 1 1 0 -0 0 -0 -1 -1 -1 -1 -1 -1 -2
4 4 3 2 2 2 2 1 0 -0 0 -0 -1 -1 -1 -2 -2 -2 -2 -3 -3 -3
3 3 2 1 1 0 0 -0 -0 -1 -1 -1 -2 -2 -2 -2 -2 -3 -3 -3 -3 -3
2 1 1 0 -0 -1 -1 -1 -1 -2 -2 -2 -2 -3 -3 -3 -4 -4 -4 -3 -3 -3
1 1 0 -1 -1 -2 -2 -2 -2 -2 -2 -3 -3 -4 -3 -3 -4 -4 -3 -3 -3 -3
1 -0 -1 -1 -2 -2 -2 -3 -3 -3 -3 -3 -3 -3 -4 -4 -4 -4 -4 -4 -4 -4
-0 -1 -2 -2 -2 -2 -2 -2 -3 -3 -4 -4 -4 -5 -5 -5 -5 -5 -5 -5 -5 -6
-1 -2 -2 -2 -3 -3 -3 -3 -3 -4 -4 -4 -5 -5 -5 -5 -6 -6 -6 -6 -6 -7
-2 -3 -3 -3 -3 -3 -3 -4 -4 -4 -5 -5 -5 -6 -6 -6 -7 -7 -7 -7 -7 -7
-2 -3 -3 -3 -3 -3 -4 -4 -5 -5 -5 -6 -6 -7 -7 -7 -7 -8 -7 -7 -7 -7
-3 -3 -3 -4 -4 -4 -5 -5 -5 -6 -6 -7 -7 -8 -8 -8 -8 -8 -8 -8 -8 -8
-3 -4 -4 -4 -5 -5 -6 -6 -6 -7 -7 -8 -8 -9 -9 -9 -10 -9 -10 -10 -9 -9
-4 -4 -5 -5 -5 -6 -6 -6 -7 -8 -9 -9 -9 -10 -11 -11 -11 -11 -10 -10 -10 -9
-4 -5 -5 -6 -6 -6 -7 -8 -9 -9 -10 -10 -10 -11 -11 -12 -12 -11 -11 -10 -10 -9

GFSNIL_850_temp_027.txt.gz
Temp
7 6 5 5 4 4 3 3 3 2 1 1 1 0 -0 -1 -1 -1 -1 -1 -2 -2
6 5 5 4 3 3 2 2 2 1 0 -0 -0 -0 -0 -1 -2 -2 -2 -2 -2 -3
5 5 4 3 2 2 1 0 -0 -0 -0 -0 -0 -1 -1 -1 -2 -2 -3 -3 -3 -3
4 4 3 2 2 1 -0 -1 -1 -2 -1 -1 -2 -3 -3 -3 -3 -3 -3 -3 -3 -3
3 3 2 1 1 -1 -1 -2 -2 -2 -2 -2 -2 -2 -2 -2 -3 -3 -3 -3 -3 -2
3 1 0 -1 -1 -1 -2 -2 -2 -2 -2 -2 -2 -2 -3 -3 -3 -3 -3 -3 -3 -3
1 -0 -1 -1 -1 -2 -2 -2 -3 -2 -2 -2 -2 -3 -3 -3 -4 -5 -4 -4 -4 -4
-1 -1 -1 -2 -2 -2 -2 -2 -2 -2 -2 -3 -3 -3 -4 -4 -6 -6 -6 -5 -5 -5
-1 -1 -2 -2 -2 -2 -2 -3 -3 -3 -3 -3 -3 -4 -5 -5 -6 -7 -7 -6 -6 -5
-1 -1 -2 -2 -2 -3 -3 -3 -3 -3 -4 -4 -4 -5 -6 -6 -7 -8 -8 -7 -6 -6
-2 -2 -2 -2 -3 -3 -3 -4 -4 -4 -5 -5 -5 -7 -7 -8 -9 -9 -8 -8 -8 -8
-2 -2 -2 -2 -3 -3 -4 -4 -4 -5 -6 -7 -7 -8 -8 -9 -10 -10 -10 -9 -9 -9
-2 -2 -2 -3 -4 -4 -4 -5 -5 -7 -8 -9 -9 -9 -10 -10 -11 -11 -10 -10 -10 -10
-2 -3 -3 -4 -4 -4 -4 -5 -7 -7 -8 -9 -9 -9 -10 -10 -11 -11 -11 -10 -10 -10

GFSNIL_850_temp_030.txt.gz
Temp
7 6 6 5 5 4 3 2 2 2 1 1 1 1 -0 -0 -1 -0 -1 -1 -2 -2
6 5 5 5 4 3 2 1 1 1 0 -0 -0 -1 -1 -1 -1 -1 -2 -2 -2 -2
5 5 4 4 3 2 2 1 1 -0 -1 -1 -1 -1 -1 -2 -2 -2 -2 -2 -2 -2
4 3 3 3 2 2 1 0 -1 -1 -1 -2 -2 -2 -2 -2 -2 -2 -3 -3 -3 -3
3 3 2 2 1 0 -1 -1 -1 -1 -2 -2 -2 -2 -2 -2 -2 -2 -3 -4 -4 -3
2 2 1 0 -0 -0 -1 -1 -1 -2 -2 -2 -2 -2 -2 -2 -3 -3 -3 -3 -4 -4
2 1 0 -1 -1 -1 -1 -2 -2 -2 -2 -2 -2 -3 -3 -3 -3 -4 -4 -4 -5 -5
2 -0 -0 -1 -2 -2 -2 -2 -2 -2 -3 -3 -3 -3 -4 -4 -4 -5 -5 -5 -6 -7
1 -0 -1 -2 -2 -2 -2 -2 -3 -3 -3 -3 -4 -4 -5 -5 -6 -6 -6 -7 -7 -7
0 -1 -1 -2 -2 -2 -3 -3 -3 -3 -4 -4 -5 -5 -6 -6 -7 -7 -8 -9 -9 -8
0 -1 -1 -2 -2 -3 -3 -3 -4 -4 -4 -5 -5 -6 -7 -7 -8 -9 -9 -10 -10 -9
-0 -1 -1 -2 -2 -3 -3 -4 -4 -5 -5 -5 -6 -7 -8 -9 -9 -9 -10 -10 -10 -10
-2 -2 -2 -3 -4 -4 -4 -4 -5 -5 -6 -6 -8 -8 -9 -9 -10 -10 -10 -10 -10 -10
-2 -3 -2 -4 -4 -4 -4 -4 -5 -6 -6 -8 -8 -9 -9 -10 -10 -11 -11 -11 -11 -11

GFSNIL_850_temp_033.txt.gz
Temp
6 6 5 5 5 4 4 3 3 2 1 1 0 -0 -1 -1 -1 -0 -0 -1 -2 -2
6 5 5 4 4 3 3 2 2 1 0 -0 -1 -1 -2 -2 -1 -2 -2 -2 -2 -2
6 5 4 3 3 3 2 1 1 -0 -1 -1 -2 -2 -2 -2 -2 -2 -2 -2 -3 -3
4 3 3 3 2 2 1 0 -1 -1 -1 -2 -2 -2 -2 -3 -3 -3 -3 -3 -4 -4
3 2 2 2 2 1 -0 -1 -1 -2 -2 -2 -2 -3 -3 -3 -3 -3 -3 -3 -3 -4
2 2 2 2 1 0 -1 -2 -2 -2 -2 -2 -3 -3 -3 -3 -3 -3 -4 -4 -4 -5
2 2 2 1 0 -0 -1 -2 -2 -3 -3 -3 -3 -3 -3 -4 -4 -4 -5 -5 -6 -6
2 2 2 0 0 -1 -1 -2 -3 -3 -3 -3 -4 -4 -4 -4 -5 -5 -6 -6 -7 -7
2 2 1 0 -1 -1 -2 -3 -3 -3 -3 -4 -4 -4 -5 -5 -6 -6 -7 -8 -8 -8
1 0 -1 -1 -3 -2 -2 -3 -3 -4 -4 -4 -5 -5 -6 -6 -7 -8 -8 -9 -9 -9
0 -1 -2 -3 -2 -2 -3 -4 -4 -4 -4 -5 -5 -6 -6 -8 -8 -9 -9 -9 -10 -10
0 -2 -3 -3 -3 -4 -5 -4 -4 -4 -5 -5 -6 -7 -8 -8 -9 -9 -10 -10 -10 -11
-1 -1 -3 -3 -3 -4 -4 -4 -4 -5 -5 -6 -7 -8 -9 -9 -10 -10 -11 -11 -11 -11
-2 -2 -3 -4 -4 -4 -4 -5 -5 -5 -6 -7 -8 -9 -10 -10 -11 -11 -12 -12 -12 -12

GFSNIL_850_temp_036.txt.gz
Temp
7 6 6 5 5 4 3 2 2 1 1 0 -1 -1 -1 -1 -2 -2 -2 -2 -2 -2
6 6 5 5 4 3 2 2 1 0 -1 -1 -1 -2 -2 -2 -2 -2 -3 -3 -3 -3
5 5 4 4 3 2 2 1 1 -0 -1 -1 -1 -2 -3 -3 -3 -3 -3 -3 -3 -3
5 4 4 4 3 2 2 1 1 -0 -1 -2 -2 -2 -3 -3 -3 -3 -3 -3 -3 -4
5 4 3 3 3 2 1 1 0 -1 -2 -2 -2 -3 -3 -3 -3 -3 -4 -4 -4 -4
3 3 3 2 2 1 1 0 -1 -2 -2 -2 -3 -3 -3 -3 -4 -4 -5 -5 -5 -6
3 3 2 1 1 1 -1 -1 -2 -2 -3 -3 -3 -4 -4 -4 -5 -5 -5 -6 -6 -7
2 2 2 0 -0 -1 -3 -2 -3 -3 -3 -3 -4 -4 -5 -5 -5 -6 -6 -7 -8 -8
2 1 1 -0 -1 -1 -3 -3 -3 -3 -4 -4 -4 -5 -5 -5 -6 -7 -8 -8 -9 -9
1 0 -1 -1 -2 -2 -3 -4 -4 -4 -4 -4 -5 -5 -6 -7 -7 -8 -9 -9 -9 -10
-0 -1 -1 -1 -1 -3 -4 -4 -5 -4 -4 -5 -6 -6 -7 -7 -8 -9 -9 -10 -10 -10
-1 -1 -2 -2 -3 -2 -4 -4 -4 -5 -5 -6 -6 -7 -7 -8 -8 -9 -10 -10 -11 -11
-2 -2 -3 -4 -4 -4 -5 -5 -5 -6 -6 -7 -7 -8 -8 -9 -9 -10 -10 -11 -11 -12
-2 -3 -4 -4 -5 -5 -6 -6 -6 -6 -7 -7 -8 -8 -9 -10 -10 -11 -13 -13 -12 -12

GFSNIL_850_temp_039.txt.gz
Temp
7 6 6 5 5 4 3 2 2 2 1 1 -1 -1 -2 -2 -2 -2 -2 -3 -3 -3
6 5 5 5 4 4 3 2 2 1 1 -1 -2 -2 -2 -2 -2 -3 -3 -3 -3 -4
5 5 4 4 3 3 2 2 1 1 1 -0 -1 -2 -3 -3 -3 -3 -3 -3 -3 -3
4 4 3 3 2 2 2 1 1 1 0 -1 -2 -2 -2 -3 -3 -3 -3 -4 -4 -4
4 3 3 2 2 2 1 1 -0 -1 -2 -2 -2 -2 -3 -3 -4 -4 -4 -5 -5 -5
3 3 2 2 2 1 0 -1 -1 -2 -2 -3 -3 -3 -4 -4 -4 -5 -5 -5 -6 -6
3 2 2 1 1 0 -0 -1 -2 -3 -4 -4 -4 -4 -4 -4 -5 -5 -6 -6 -6 -7
2 2 1 1 -0 -1 -1 -2 -2 -3 -4 -4 -5 -5 -5 -5 -6 -6 -6 -7 -8 -8
1 0 -0 -1 -1 -1 -2 -2 -3 -4 -4 -5 -5 -5 -5 -6 -6 -7 -8 -8 -9 -9
-0 -1 -1 -1 -2 -2 -3 -3 -4 -4 -5 -6 -5 -5 -6 -7 -7 -8 -9 -9 -10 -10
-1 -1 -2 -2 -3 -4 -4 -4 -5 -5 -5 -5 -6 -7 -7 -7 -8 -9 -9 -9 -10 -11
-2 -2 -2 -2 -4 -4 -4 -5 -5 -6 -6 -6 -7 -7 -8 -9 -9 -9 -9 -9 -10 -11
-2 -3 -3 -3 -4 -4 -4 -5 -6 -6 -7 -7 -7 -8 -9 -10 -10 -9 -10 -10 -11 -12
-3 -4 -4 -4 -5 -5 -5 -6 -7 -7 -7 -8 -8 -9 -10 -10 -10 -11 -12 -12 -12 -12

GFSNIL_850_temp_042.txt.gz
Temp
6 5 5 4 4 4 3 3 3 2 1 1 1 0 -1 -2 -2 -2 -2 -3 -3 -3
5 4 4 4 4 3 3 2 2 1 1 0 -1 -2 -2 -2 -2 -3 -3 -3 -3 -3
4 4 3 3 3 3 2 2 1 0 -0 -0 -1 -2 -3 -2 -3 -3 -3 -4 -4 -4
4 3 3 2 2 2 1 1 0 -0 -0 -1 -1 -2 -3 -3 -3 -4 -4 -4 -5 -5
3 3 2 2 2 1 1 0 -0 -1 -1 -2 -3 -3 -4 -4 -4 -4 -5 -5 -5 -6
3 2 2 1 1 0 -0 -0 -1 -1 -2 -2 -3 -4 -4 -5 -5 -5 -5 -6 -6 -6
2 1 1 0 -0 -0 -1 -1 -1 -2 -2 -3 -4 -5 -5 -6 -5 -5 -6 -6 -6 -7
1 0 -0 -1 -1 -1 -2 -2 -2 -3 -4 -4 -4 -5 -6 -6 -6 -6 -6 -7 -7 -8
-0 -1 -1 -2 -2 -2 -3 -4 -4 -3 -4 -5 -5 -6 -6 -6 -6 -7 -7 -8 -8 -9
-1 -2 -2 -2 -2 -2 -4 -4 -5 -5 -5 -5 -5 -6 -6 -6 -7 -7 -8 -9 -9 -9
-2 -2 -3 -3 -3 -3 -5 -5 -5 -5 -5 -5 -6 -7 -7 -7 -8 -8 -8 -9 -9 -10
-3 -3 -3 -4 -4 -4 -4 -4 -5 -5 -6 -6 -7 -7 -8 -8 -9 -9 -9 -9 -10 -11
-3 -4 -4 -4 -4 -5 -5 -5 -5 -6 -7 -7 -7 -8 -8 -9 -10 -10 -10 -10 -11 -12
-4 -5 -5 -5 -6 -6 -6 -6 -6 -7 -7 -8 -8 -9 -9 -10 -10 -10 -11 -11 -12 -12

GFSNIL_850_temp_048.txt.gz
Temp
5 5 5 5 4 4 4 3 3 2 2 1 1 0 -0 -1 -1 -1 -2 -2 -2 -2
5 4 4 4 3 3 2 2 1 1 1 1 0 -0 -1 -1 -1 -2 -2 -2 -3 -3
4 4 3 3 2 2 1 1 1 1 0 0 -0 -1 -1 -1 -1 -2 -2 -3 -3 -3
4 3 3 2 1 1 1 1 0 0 -0 -0 -1 -1 -2 -2 -2 -3 -3 -3 -4 -4
3 2 2 1 1 0 -0 -1 -1 -1 -1 -1 -2 -2 -3 -3 -4 -4 -4 -4 -4 -5
2 2 1 1 0 -0 -1 -1 -2 -2 -2 -2 -3 -3 -4 -4 -4 -5 -5 -5 -5 -5
2 1 0 -0 -1 -1 -2 -2 -2 -3 -3 -3 -3 -3 -4 -5 -5 -5 -5 -6 -6 -6
1 0 -0 -1 -2 -2 -3 -3 -3 -4 -4 -4 -5 -5 -5 -5 -5 -5 -6 -6 -7 -7
-0 -1 -1 -2 -2 -2 -2 -3 -4 -4 -4 -5 -5 -5 -5 -5 -6 -6 -6 -7 -7 -8
-1 -1 -1 -2 -2 -3 -3 -3 -4 -4 -4 -5 -5 -5 -6 -6 -7 -7 -8 -8 -8 -8
-1 -1 -2 -2 -3 -3 -4 -4 -5 -5 -5 -5 -6 -6 -6 -7 -7 -8 -8 -9 -9 -9
-2 -3 -3 -3 -3 -4 -5 -5 -5 -5 -6 -6 -6 -7 -7 -7 -8 -9 -9 -9 -9 -10
-3 -4 -4 -4 -4 -4 -5 -5 -5 -6 -6 -7 -7 -7 -7 -8 -9 -10 -10 -10 -10 -10
-4 -5 -5 -4 -6 -5 -5 -6 -6 -6 -6 -7 -8 -8 -8 -8 -8 -10 -10 -10 -10 -10

GFSNIL_850_temp_051.txt.gz
Temp
7 7 6 6 6 5 5 5 4 3 3 3 3 2 2 1 0 -0 -0 -1 -1 -2
6 6 5 5 4 4 4 4 3 2 2 2 2 2 1 1 -0 -0 -1 -1 -2 -2
6 5 5 4 4 3 3 2 2 2 1 1 1 1 1 0 -0 -1 -1 -2 -2 -2
5 5 4 4 3 3 2 2 1 1 1 0 0 0 0 -1 -1 -1 -2 -2 -3 -3
4 4 4 3 3 2 1 1 0 0 -0 -0 -0 -0 -1 -2 -2 -3 -3 -3 -4 -4
4 4 3 3 2 1 1 0 -0 -0 -1 -1 -1 -3 -2 -4 -4 -4 -4 -4 -4 -5
4 3 2 2 1 1 0 -1 -1 -1 -1 -3 -3 -4 -4 -4 -4 -5 -5 -5 -5 -5
3 2 2 1 1 -0 -1 -1 -1 -1 -2 -3 -4 -4 -4 -4 -5 -5 -5 -5 -5 -5
2 1 1 1 0 -0 -1 -1 -1 -2 -3 -4 -4 -4 -4 -5 -5 -5 -5 -5 -5 -6
1 0 0 0 -0 -0 -1 -1 -2 -3 -4 -4 -4 -4 -4 -5 -6 -6 -6 -6 -6 -7
0 -0 -1 -1 -1 -1 -1 -2 -3 -4 -4 -4 -4 -5 -5 -6 -6 -6 -6 -7 -7 -7
-1 -1 -1 -1 -1 -2 -2 -2 -4 -4 -5 -5 -5 -5 -5 -6 -7 -7 -8 -8 -8 -8
-1 -2 -2 -2 -3 -3 -3 -3 -4 -5 -5 -5 -6 -6 -6 -7 -7 -9 -9 -8 -8 -8
-2 -2 -3 -3 -4 -4 -3 -4 -5 -6 -6 -6 -6 -7 -7 -7 -8 -9 -9 -9 -9 -9

GFSNIL_850_temp_057.txt.gz
Temp
10 9 9 9 8 7 7 6 6 5 5 4 4 3 2 2 1 1 1 0 0 -0
9 9 8 7 7 6 5 5 4 4 4 3 3 2 1 1 0 0 0 -0 -1 -1
8 7 7 7 7 5 4 4 4 3 3 2 1 0 0 -0 -0 -0 -1 -1 -1 -2
7 7 6 5 4 4 4 3 3 2 2 1 0 -0 -0 -1 -1 -1 -1 -2 -2 -3
7 5 4 4 4 4 3 3 2 2 1 0 -0 -1 -1 -1 -1 -2 -3 -3 -4 -4
5 5 4 4 4 3 3 2 2 1 1 -0 -1 -1 -1 -1 -2 -3 -3 -4 -4 -4
4 3 4 4 3 3 2 1 1 0 -0 -1 -1 -1 -1 -2 -3 -3 -4 -4 -5 -5
4 4 3 3 2 2 1 1 0 -0 -0 -1 -1 -1 -2 -3 -4 -4 -5 -5 -5 -6
3 3 3 2 2 2 1 0 -0 -0 -1 -1 -1 -2 -3 -4 -4 -5 -5 -6 -5 -6
2 2 2 2 2 0 -0 -1 -1 -1 -2 -2 -2 -2 -3 -4 -4 -5 -5 -6 -6 -6
1 0 1 0 -0 -1 -1 -1 -1 -2 -2 -3 -3 -3 -4 -5 -5 -5 -6 -6 -6 -6
-0 1 0 -0 -1 -2 -2 -2 -2 -2 -3 -3 -3 -4 -4 -5 -6 -6 -6 -6 -6 -7
0 0 -1 -2 -2 -2 -2 -3 -3 -3 -4 -4 -4 -5 -6 -6 -6 -6 -7 -7 -7 -8
-0 -1 -1 -1 -2 -2 -3 -3 -3 -4 -4 -4 -5 -6 -6 -7 -7 -7 -7 -7 -8 -8

GFSNIL_850_temp_060.txt.gz
Temp
10 9 9 8 7 7 7 6 7 5 5 5 4 4 3 3 2 1 1 0 -0 -0
10 9 9 8 7 6 6 6 6 5 4 4 4 3 3 2 1 0 -0 -1 -1 -1
10 9 8 7 7 7 5 5 5 4 4 3 3 2 2 1 -0 -1 -1 -1 -2 -2
9 8 6 6 6 6 5 4 4 4 3 2 2 1 1 -0 -1 -1 -1 -2 -2 -3
7 6 5 4 4 4 4 4 3 3 2 2 1 0 -0 -1 -1 -1 -2 -2 -3 -4
6 5 4 4 3 3 3 3 2 2 2 1 0 -0 -1 -1 -1 -2 -3 -3 -3 -4
5 4 4 3 3 3 3 2 2 2 0 0 -0 -1 -1 -1 -2 -2 -4 -4 -5 -5
4 4 3 3 3 2 2 2 2 0 -0 -0 -1 -1 -1 -2 -2 -3 -4 -5 -5 -5
4 4 3 2 2 2 1 1 1 -0 -1 -1 -2 -2 -2 -3 -3 -4 -4 -5 -5 -6
3 2 2 2 1 1 0 -0 -1 -1 -1 -2 -2 -3 -3 -3 -4 -4 -5 -5 -5 -6
2 2 2 1 0 0 -1 -1 -1 -1 -2 -2 -3 -3 -4 -4 -4 -5 -5 -6 -6 -7
2 2 1 0 -0 -1 -1 -2 -2 -2 -2 -3 -3 -4 -4 -5 -5 -6 -6 -6 -7 -7
1 1 0 -0 -1 -1 -2 -2 -3 -3 -3 -4 -4 -4 -5 -5 -6 -7 -7 -7 -7 -7
0 -0 -1 -1 -1 -2 -2 -2 -2 -3 -4 -5 -5 -5 -5 -6 -6 -7 -7 -7 -7 -8

GFSNIL_850_temp_063.txt.gz
Temp
11 10 10 9 8 7 7 7 6 6 5 4 4 4 3 3 2 2 1 -0 -1 -1
10 10 9 8 7 7 5 5 5 5 4 4 3 3 3 2 1 0 -0 -1 -1 -1
10 9 8 8 7 6 5 4 4 4 3 3 3 3 2 1 1 -0 -1 -1 -1 -2
10 9 8 7 6 5 5 4 4 3 3 3 3 2 1 1 0 -1 -1 -1 -2 -2
9 8 6 6 6 4 4 4 3 3 3 3 2 1 1 0 -1 -1 -1 -2 -2 -3
6 6 6 5 4 4 4 3 3 3 2 2 1 0 -0 -1 -1 -2 -2 -2 -3 -4
7 7 6 5 4 3 3 3 3 2 1 1 0 -0 -1 -1 -2 -2 -2 -3 -4 -5
7 6 4 4 3 3 3 3 2 1 1 1 -0 -1 -1 -2 -2 -3 -3 -4 -4 -5
5 4 3 2 2 3 3 1 1 1 0 -0 -1 -2 -2 -3 -3 -4 -4 -4 -5 -5
3 2 2 2 2 2 2 1 1 -0 -1 -1 -1 -2 -2 -3 -4 -4 -4 -5 -6 -5
2 2 2 2 1 1 1 0 -0 -1 -1 -1 -2 -2 -3 -4 -4 -5 -5 -6 -6 -6
2 1 1 1 1 1 1 -0 -1 -1 -1 -2 -2 -3 -4 -4 -5 -5 -6 -7 -6 -7
1 0 1 1 1 0 -0 -1 -1 -2 -2 -2 -2 -4 -5 -5 -5 -5 -6 -7 -7 -7
1 1 1 0 -0 -1 -1 -1 -2 -2 -2 -3 -3 -4 -5 -6 -6 -6 -6 -7 -7 -7

GFSNIL_850_temp_069.txt.gz
Temp
11 10 9 10 10 10 10 9 8 7 6 5 5 5 4 4 3 3 2 1 1 0
10 10 10 11 10 10 9 8 7 5 5 5 5 4 3 3 2 2 1 1 0 -1
10 10 11 10 9 9 8 6 5 4 5 4 4 3 3 2 1 1 1 0 -1 -1
11 11 10 10 9 8 7 5 5 5 6 3 3 3 2 2 1 1 -0 -1 -1 -2
11 11 10 8 8 6 5 6 5 5 4 3 2 2 1 1 0 -0 -1 -1 -2 -2
10 9 9 6 6 6 5 5 4 4 3 3 2 1 1 1 0 -0 -1 -1 -2 -2
8 6 5 6 4 5 4 3 3 3 2 2 1 1 1 -0 -0 -1 -1 -2 -2 -3
5 5 5 4 3 3 2 2 2 2 1 1 1 0 -0 -0 -1 -1 -1 -2 -2 -3
5 5 3 3 3 2 2 1 1 1 1 1 1 -0 -1 -1 -1 -1 -2 -2 -3 -4
4 3 2 2 1 1 1 1 1 1 1 0 0 -1 -1 -1 -2 -2 -2 -3 -4 -4
2 2 1 0 1 0 1 0 0 0 -0 -1 -1 -1 -1 -2 -2 -2 -2 -3 -4 -5
2 1 1 1 1 0 0 0 0 -0 -1 -1 -1 -2 -2 -2 -3 -3 -3 -3 -4 -4
1 1 1 0 -0 -0 -0 -0 -1 -1 -1 -2 -2 -3 -3 -3 -3 -4 -4 -4 -4 -4
1 1 0 -0 -0 -0 -0 -1 -1 -1 -2 -2 -3 -3 -3 -4 -4 -5 -5 -5 -4 -4

GFSNIL_850_temp_072.txt.gz
Temp
12 12 11 10 9 8 8 8 7 7 6 6 5 5 5 4 3 2 2 1 1 1
12 11 11 10 9 8 7 7 7 6 7 6 5 5 5 3 2 2 1 1 0 0
12 11 11 10 9 7 6 7 7 7 5 4 5 5 4 2 1 1 1 1 0 -0
10 10 10 9 9 8 7 8 6 5 5 5 4 4 3 2 1 1 1 0 -0 -0
10 9 10 9 8 8 6 5 6 6 5 4 3 3 2 1 1 1 0 0 -0 -1
11 10 9 8 8 6 6 5 4 4 4 4 3 2 1 1 1 0 -0 -0 -0 -1
10 11 9 8 4 5 5 4 3 3 3 3 2 1 0 0 -0 -0 -0 -1 -1 -1
8 8 6 5 5 5 3 3 4 2 3 2 1 0 -0 -0 -1 -1 -1 -1 -2 -2
7 5 6 5 5 3 3 3 2 2 1 0 0 -0 0 0 -1 -1 -2 -1 -2 -2
5 5 4 3 3 3 2 1 1 0 1 0 -1 -0 -0 -0 -1 -2 -2 -2 -2 -2
5 4 3 2 2 1 1 1 -0 -0 -1 -1 -1 -0 -1 -1 -2 -3 -3 -3 -3 -3
3 2 1 1 1 0 -0 -0 -0 -1 -1 -2 -2 -2 -2 -2 -3 -4 -4 -3 -3 -3
1 1 1 0 -0 -0 -0 -1 -1 -2 -2 -2 -2 -3 -3 -3 -4 -4 -5 -5 -5 -5
1 1 1 0 0 -0 -1 -1 -1 -1 -1 -1 -2 -3 -3 -3 -4 -6 -7 -7 -7 -6

GFSNIL_850_temp_075.txt.gz
Temp
11 11 10 10 9 11 10 8 8 7 7 6 5 6 6 6 6 5 4 3 3 3
11 11 10 10 9 10 9 8 7 7 6 5 5 5 5 5 5 4 3 2 2 2
11 10 10 10 9 10 9 8 7 6 5 5 5 4 5 5 3 3 3 2 2 2
11 11 10 10 9 9 8 7 6 6 5 4 4 4 4 3 3 3 2 2 2 2
11 10 10 10 9 8 7 7 6 5 5 4 5 3 2 2 3 3 2 2 2 2
10 10 11 10 10 9 8 6 5 5 4 4 3 2 2 3 2 2 2 2 1 1
10 10 9 9 8 8 7 6 4 4 4 3 1 2 2 2 2 2 1 1 1 1
9 9 8 7 6 6 5 6 5 4 4 2 2 2 2 1 1 1 1 0 0 0
8 7 7 6 6 5 4 4 3 4 2 2 2 2 1 1 1 0 -1 -0 -0 -0
7 6 5 5 4 3 3 3 2 2 2 1 1 1 0 0 -0 -1 -1 -1 -1 -1
5 5 4 3 2 2 2 1 2 1 1 1 0 0 -0 -1 -1 -2 -2 -2 -2 -2
3 4 3 2 2 2 1 1 1 1 0 0 -0 -1 -1 -1 -2 -3 -3 -3 -3 -3
4 2 2 2 1 1 1 1 0 -0 -1 -1 -2 -2 -3 -2 -3 -3 -4 -4 -5 -5
2 2 1 1 1 0 0 -0 -1 -1 -0 -1 -2 -3 -4 -3 -4 -5 -5 -5 -6 -6

GFSNIL_850_temp_078.txt.gz
Temp
13 12 12 12 13 12 12 12 11 10 8 8 7 7 7 6 6 6 5 5 5 4
12 12 12 13 13 11 11 11 10 9 8 7 7 6 6 5 5 5 5 5 4 3
13 11 12 12 11 10 10 9 8 8 7 6 6 6 5 4 4 4 4 3 3 2
12 11 11 11 10 10 10 9 8 7 7 6 6 5 4 5 4 3 2 2 3 2
12 12 10 10 10 10 10 9 8 8 7 6 5 5 4 4 3 3 2 2 2 2
13 12 10 10 9 9 9 9 8 7 7 6 5 4 4 3 3 2 2 2 2 2
14 10 10 10 9 9 8 8 7 6 6 5 5 4 3 2 2 2 2 2 1 1
10 10 9 9 9 9 8 6 6 5 4 4 4 3 2 3 2 2 2 1 1 1
9 9 9 8 8 7 6 5 4 4 3 4 3 2 3 2 2 1 1 1 1 0
8 8 8 7 7 6 5 4 4 3 3 2 2 2 2 1 1 1 1 0 -0 -1
8 7 6 6 5 4 4 3 3 2 2 2 1 1 1 0 0 -0 -0 -1 -2 -2
6 5 5 4 3 3 2 2 2 2 1 1 0 -0 -0 -0 -1 -1 -1 -2 -2 -2
4 4 4 3 2 2 2 1 1 1 1 -0 -0 -1 -1 -0 -1 -1 -1 -1 -2 -3
3 3 2 2 2 1 1 1 1 1 0 -0 -1 -2 -1 -1 -1 -2 -3 -3 -3 -3

GFSNIL_850_temp_081.txt.gz
Temp
13 13 13 12 12 12 13 13 12 11 10 9 9 8 8 8 7 7 7 7 6 6
13 12 13 12 12 13 13 12 12 11 9 9 8 8 7 6 6 6 5 5 5 5
14 13 13 13 12 13 13 11 11 10 9 8 7 7 6 6 5 5 4 4 4 4
14 14 13 13 13 13 13 10 10 9 9 8 7 7 7 6 5 5 5 5 3 2
14 14 14 12 12 11 11 10 9 9 9 8 7 7 6 6 6 5 5 4 2 2
14 14 14 12 12 10 10 10 9 9 8 8 7 6 5 6 5 4 3 3 2 2
14 13 14 13 13 10 10 10 9 9 8 7 6 6 5 4 4 3 2 2 2 2
14 14 13 14 12 10 9 9 9 8 6 6 6 5 4 4 3 2 2 2 2 2
14 12 10 10 10 9 9 8 7 6 5 5 4 4 3 3 2 2 2 2 2 1
10 10 9 9 9 8 8 7 5 5 4 4 3 2 2 2 2 2 2 1 1 1
9 8 8 8 7 7 6 5 5 4 3 2 2 1 2 2 1 1 1 1 0 -1
8 8 8 7 7 5 4 4 3 2 2 2 2 1 1 1 1 0 0 -0 -1 -2
7 6 6 5 4 4 3 3 2 2 2 1 1 1 0 0 -0 -1 -1 -1 -2 -2
6 5 5 4 3 2 2 2 1 1 1 1 0 -0 -0 -1 -1 -1 -2 -2 -2 -3

GFSNIL_850_temp_084.txt.gz
Temp
11 11 12 12 12 12 12 12 12 12 11 11 10 9 9 9 8 8 6 6 6 6
12 12 12 12 12 12 12 12 12 12 11 10 10 9 8 8 8 7 6 6 6 5
12 12 12 12 12 12 12 13 13 12 11 11 10 9 8 8 7 7 6 6 6 5
13 13 13 13 12 12 12 13 13 12 11 11 10 10 9 8 7 7 6 6 5 4
13 13 13 13 12 11 12 12 12 12 10 10 9 9 9 7 7 6 6 5 5 5
14 13 13 13 13 11 11 10 10 10 9 9 9 9 8 7 7 6 5 5 4 4
15 14 14 13 12 11 11 12 10 10 10 9 9 8 8 7 6 5 4 3 2 2
14 14 14 14 12 13 11 12 10 10 9 8 8 7 7 6 5 4 3 2 2 2
14 14 14 14 13 12 10 10 9 9 8 8 7 6 5 4 4 4 2 2 2 2
14 12 11 10 10 10 9 9 9 9 8 6 5 5 4 4 3 2 2 1 1 1
10 10 10 9 9 9 8 8 8 7 5 4 4 4 3 3 1 1 1 1 1 1
10 10 9 9 9 8 7 7 5 4 4 4 2 3 1 1 1 1 1 0 0 -0
9 9 9 8 8 7 6 5 4 3 3 2 2 1 1 1 0 0 -0 -0 -1 -1
9 8 7 7 6 5 4 4 3 2 2 0 0 0 -1 -1 -0 -1 -1 -2 -2 -3

GFSNIL_850_temp_087.txt.gz
Temp
11 11 11 12 12 12 12 13 13 13 12 12 11 11 11 9 9 9 8 8 8 7
11 11 11 12 12 12 12 12 12 12 12 12 11 11 10 10 9 9 9 8 8 7
11 11 11 11 11 12 12 12 12 12 11 11 11 11 10 10 9 9 8 8 7 6
11 11 11 11 12 12 12 12 12 11 11 11 10 9 10 9 9 9 8 7 8 6
12 12 12 12 12 11 11 11 12 11 10 10 10 10 10 9 9 9 8 7 7 6
12 12 13 13 12 12 12 10 10 9 10 10 10 10 9 9 9 9 9 7 6 5
13 13 13 13 12 12 11 11 11 10 9 9 9 9 9 9 9 8 7 6 6 5
14 13 13 12 12 12 12 11 11 11 11 9 9 9 9 9 8 7 6 5 4 3
13 12 12 12 11 11 10 11 10 11 10 9 9 9 8 8 8 5 4 4 3 2
13 13 12 11 10 10 10 10 9 9 9 9 9 8 8 7 5 4 4 3 2 1
13 13 10 10 10 10 9 9 9 9 8 8 7 7 4 4 4 4 2 1 -0 -1
10 10 10 9 10 9 9 9 8 8 7 5 4 4 4 3 3 1 0 -1 -2 -1
10 9 8 9 8 8 8 7 5 4 4 4 4 3 2 2 -0 -0 -1 -2 -2 -2
8 8 7 7 7 7 6 5 4 4 3 2 1 1 0 -0 -1 -2 -2 -3 -3 -3

GFSNIL_850_temp_090.txt.gz
Temp
9 9 9 10 10 10 10 10 11 11 11 11 11 11 11 10 10 10 11 9 9 8
10 10 11 10 10 10 10 10 11 11 11 11 11 12 11 11 11 11 11 10 9 9
11 11 10 10 10 10 10 11 11 11 11 12 12 11 11 11 11 10 10 9 9 9
13 12 12 12 12 12 12 12 12 12 12 11 11 11 11 10 10 9 9 9 9 9
13 12 12 12 12 11 12 11 11 11 11 10 10 10 10 9 9 9 9 9 9 8
14 12 13 12 12 12 12 12 11 11 10 11 10 9 10 9 9 9 9 8 8 8
15 15 14 13 12 12 12 11 12 11 10 10 10 9 9 9 9 9 9 8 8 8
14 13 13 12 12 12 11 11 11 10 10 10 10 10 10 10 10 8 8 8 8 6
12 12 12 12 11 10 10 10 10 10 9 9 9 9 9 10 9 9 8 8 7 5
12 12 11 11 10 10 10 10 10 9 9 9 9 8 8 8 8 7 6 5 4 3
11 10 10 10 9 9 9 9 10 9 9 9 8 8 6 5 4 4 4 3 3 2
9 9 9 9 9 9 9 9 9 9 8 7 6 5 4 4 3 3 3 3 2 1
8 8 8 8 8 7 8 8 7 6 5 4 4 3 3 2 3 3 2 -1 -1 -2
8 8 8 7 7 7 7 6 5 5 4 3 2 2 1 1 -1 -1 -2 -3 -3 -4

GFSNIL_850_temp_093.txt.gz
Temp
8 9 10 10 10 10 10 10 10 10 10 10 11 11 10 11 11 11 11 10 10 9
9 8 9 9 10 9 10 9 10 10 10 10 10 10 10 10 11 11 11 10 10 10
10 9 9 9 9 9 9 9 10 10 10 10 10 10 10 11 11 10 10 10 9 9
11 11 10 11 11 11 10 10 10 10 10 10 11 11 11 10 10 10 10 9 9 9
13 13 13 12 13 12 12 11 11 11 11 11 11 11 11 10 10 9 9 9 8 8
14 14 14 14 13 13 13 13 13 12 12 12 11 10 10 9 9 9 8 9 8 9
14 14 14 13 13 13 13 12 12 11 11 11 11 10 10 11 10 9 8 8 9 9
14 13 13 12 11 11 11 11 11 10 10 11 11 11 10 10 9 9 8 8 8 8
13 13 12 12 12 11 11 10 10 10 10 10 10 10 9 9 9 8 8 8 7 7
12 12 12 11 11 10 10 10 10 10 10 9 9 9 9 8 8 8 7 6 6 5
12 11 11 10 10 9 9 9 9 10 9 8 8 8 8 8 6 5 4 4 3 3
10 9 9 9 9 9 9 9 9 8 8 7 7 7 7 6 4 4 3 2 1 1
9 8 8 8 8 8 8 7 7 7 6 6 5 4 4 3 2 2 1 0 -1 -3
8 8 7 7 7 6 6 6 6 5 5 3 2 2 1 1 0 -1 -2 -3 -3 -4